This is the latest recevied weather packets stored in our database for station/object F4IVW-13. If no packets are shown the sender has not sent any weather packets the latest 10 day(s).
| Time | Temp. | Humidity | Pressure | Rain* | Wind** | Luminosity | Snow |
|---|---|---|---|---|---|---|---|
| 1777544613 | 19.44° C | 99% | 1017.5 hPa | 0 mm | - | 11 W/m² | - |
| 1777544296 | 18.89° C | 99% | 1017.4 hPa | 0 mm | - | 12 W/m² | - |
| 1777543988 | 17.78° C | 99% | 1017.4 hPa | 0 mm | - | 11 W/m² | - |
| 1777543662 | 17.78° C | 99% | 1017.4 hPa | 0 mm | - | 10 W/m² | - |
| 1777543345 | 17.78° C | 99% | 1017.4 hPa | 0 mm | - | 1 W/m² | - |
| 1777543028 | 18.33° C | 99% | 1017.4 hPa | 0 mm | - | 0 W/m² | - |
| 1777542711 | 18.33° C | 99% | 1017.4 hPa | 0 mm | - | 0 W/m² | - |
| 1777542393 | 18.89° C | 99% | 1017.3 hPa | 0 mm | - | 0 W/m² | - |
| 1777542084 | 19.44° C | 99% | 1017.3 hPa | 0.25 mm | - | 0 W/m² | - |
| 1777541758 | 20° C | 99% | 1017.2 hPa | 0.25 mm | - | 1 W/m² | - |
| 1777541441 | 20° C | 99% | 1017.1 hPa | 0.25 mm | - | 4 W/m² | - |
| 1777541125 | 19.44° C | 99% | 1017 hPa | 0 mm | - | 5 W/m² | - |
| 1777541124 | 19.44° C | 99% | 1017 hPa | 0 mm | - | 5 W/m² | - |
| 1777540806 | 18.89° C | 99% | 1017 hPa | 0 mm | - | 6 W/m² | - |
| 1777540489 | 18.33° C | 99% | 1016.9 hPa | 0 mm | - | 8 W/m² | - |
| 1777540181 | 17.78° C | 99% | 1017 hPa | 0 mm | - | 6 W/m² | - |
| 1777539855 | 17.78° C | 99% | 1016.9 hPa | 0 mm | - | 10 W/m² | - |
| 1777539538 | 17.22° C | 99% | 1016.7 hPa | 0 mm | - | 7 W/m² | - |
| 1777539221 | 17.78° C | 99% | 1016.7 hPa | 0 mm | - | 3 W/m² | - |
| 1777538901 | 18.33° C | 99% | 1016.7 hPa | 0 mm | - | 1 W/m² | - |
| 1777538583 | 19.44° C | 99% | 1016.6 hPa | 0 mm | - | 1 W/m² | - |
| 1777538273 | 18.33° C | 99% | 1016.6 hPa | 0 mm | - | 2 W/m² | - |
| 1777537945 | 17.22° C | 99% | 1016.4 hPa | 0 mm | - | 61 W/m² | - |
| 1777537625 | 17.78° C | 99% | 1016.3 hPa | 0 mm | - | 12 W/m² | - |
| 1777537309 | 17.22° C | 99% | 1016.3 hPa | 0 mm | - | 17 W/m² | - |
* Rain latest hour (hover to see other rain measurements)
** Current wind speed in m/s (hover to see current wind gust speed)